Regional Weather Roundup
Issued by NWS

Home | Current Version | Previous Version | Graphics & Text | Print | Product List | Glossary On
Versions: 1 2 3 4 5 6 7 8 9 10 11 12 13 14 15 16 17 18 19 20 21 22 23 24 25 26 27 28 29 30 31 32 33 34 35 36 37 38 39 40 41 42 43 44 45 46 47 48 49 50
000
ASUS43 KMPX 010001
RWRMN
WEATHER ROUNDUP FOR MINNESOTA
NATIONAL WEATHER SERVICE TWIN CITIES/CHANHASSEN MN
700 PM CDT TUE SEP 30 2014


NOTE: "FAIR" INDICATES FEW OR NO CLOUDS BELOW 12,000 FEET WITH NO
SIGNIFICANT WEATHER AND/OR OBSTRUCTIONS TO VISIBILITY. N/A MEANS
CURRENT SKY AND/OR WEATHER CONDITIONS ARE NOT AVAILABLE.

MNZ060>063-068>070-010100-
   Twin Cities Metro

CITY           SKY/WX    TMP DP  RH WIND       PRES   REMARKS
TWIN CITIES    MOCLDY    55  44  66 SE13      29.91S
6HR MIN TEMP:  53; 6HR MAX TEMP:  59;

ST PAUL        PTCLDY    55  45  68 SE10      29.92F
CRYSTAL        MOCLDY    57  44  62 E7        29.89F
BLAINE         MOCLDY    55  46  71 E9        29.90F
LAKEVILLE      PTCLDY    54  45  71 E9        29.91R
EDEN PRAIRIE   MOCLDY    56  45  66 E10       29.88F
6HR MIN TEMP:  53; 6HR MAX TEMP:  59;

SOUTH ST PAUL  PTCLDY    55  45  67 SE7       29.92S
LAKE ELMO      FAIR      54  45  71 SE8       29.93S
$$
MNZ001>005-007-008-013>017-022>024-027-028-010100-
   Northwest Minnesota

CITY           SKY/WX    TMP DP  RH WIND       PRES   REMARKS
BEMIDJI        MOCLDY    53  43  68 E16G24    29.78F
HALLOCK        CLOUDY    57  45  62 SE10G17   29.70R
ROSEAU         CLOUDY    57  45  62 E12G21    29.76F
WARROAD        CLOUDY    55  46  71 E14       29.79F
THIEF RVR FALL CLOUDY    57  43  58 E17G24    29.71R
CROOKSTON      MOCLDY    59  46  63 SE17G23   29.68F
FOSSTON        MOCLDY    55  43  62 SE17      29.73F
DETROIT LAKES  CLOUDY    54  45  71 SE18G26   29.74S
PARK RAPIDS    MOCLDY    54  42  64 SE18G26   29.80F
MAHNOMEN       MOCLDY    56  43  63 SE22G29   29.71F
$$
MNZ006-009>011-018-025>026-010100-
   North Central Minnesota

CITY           SKY/WX    TMP DP  RH WIND       PRES   REMARKS
BAUDETTE       MOCLDY    54  43  66 SE13      29.82F
FLAG ISLAND    MOCLDY    55  45  67 SE14G22   29.80F
INTL FALLS     PTCLDY    51  43  74 SE8       29.88F
6HR MIN TEMP:  50; 6HR MAX TEMP:  58;

WASKISH        MOCLDY    55  45  67 E5        29.82F
BIG FORK       MOCLDY    52  43  71 SE10G18   29.88F
LONGVILLE      MOCLDY    52  45  76 E7        29.84F
GRAND RAPIDS   CLOUDY    48  39  71 E9        29.89F
CRANE LAKE     CLEAR     46  43  87 CALM      29.94F
ORR            PTCLDY    50  37  62 SE7       29.89F
COOK           PTCLDY    48  41  76 E6        29.93F
WALKER         FAIR      54  44  68 E8        29.82F
$$
MNZ012-019>021-037-010100-
   Northeast Minnesota

CITY           SKY/WX    TMP DP  RH WIND       PRES   REMARKS
DULUTH         CLOUDY    44  40  85 E18G25    29.96F
6HR MIN TEMP:  44; 6HR MAX TEMP:  49;

ELY            CLEAR     45  37  76 SE8       29.97S
HIBBING        MOCLDY    46  40  79 SE14      29.94F
EVELETH        MOCLDY    43  37  81 E8        29.96F
DULUTH HARBOR  MOCLDY    50  46  87 NE26      29.98F
TWO HARBORS    CLOUDY    45  37  76 E12       29.98F
SILVER BAY     PTCLDY    41  39  93 NE7       30.00S
GRAND MARAIS     N/A     47  36  65 NE8       30.03F
G MARAIS ARPRT CLEAR     39  30  70 NE7       30.02F
$$
MNZ029>031-032-039>041-046>048-054>057-064-010100-
   West Central Minnesota

CITY           SKY/WX    TMP DP  RH WIND       PRES   REMARKS
FERGUS FALLS   CLOUDY    57  45  62 SE21G29   29.70F
WHEATON        CLOUDY    55  48  76 SE22G30   29.67F
MORRIS         CLOUDY    57  48  72 SE21G28   29.71S
ALEXANDRIA     CLOUDY    54  45  71 SE24G31   29.78F
ELBOW LAKE     FAIR      56  47  74 SE16G23   29.71F
WADENA         CLOUDY    54  43  66 SE17      29.79S
GLENWOOD       CLOUDY    54  46  76 E17G23    29.79F
APPLETON       CLOUDY    59  50  72 SE20      29.72F
BENSON         CLOUDY    57  48  72 SE16G23   29.76R
ORTONVILLE     CLOUDY    57  50  77 SE20G28   29.67F
MADISON        CLOUDY    64  57  77 SE15G24   29.70F
WILLMAR        FAIR      57  48  72 SE14G20   29.82S
$$
MNZ033>034-036-042>043-049>051-058-059-010100-
   Central Minnesota

CITY           SKY/WX    TMP DP  RH WIND       PRES   REMARKS
ST CLOUD       MOCLDY    56  44  64 SE12G17   29.86F
6HR MIN TEMP:  53; 6HR MAX TEMP:  59;

SAUK CENTRE    FAIR      54  45  71 SE10      29.84R
PAYNESVILLE    CLOUDY    52  45  75 E17       29.79F
AITKIN         MOCLDY    55  45  67 E8        29.87F
PINE RIVER     MOCLDY    54  45  71 E14G21    29.86F
BRAINERD       MOCLDY    53  44  71 VRB7      29.84F
STAPLES        MOCLDY    52  43  71 SE8       29.82R
LONG PRAIRIE   MOCLDY    52  43  71 E14G21    29.82F
LITTLE FALLS   MOCLDY    52  43  71 SE10      29.84S
LITCHFIELD     CLOUDY    57  48  72 SE21      29.82F
BUFFALO        MOCLDY    55  44  66 SE6       29.90R
MAPLE LAKE     MOCLDY    56  48  72 E8        29.88R
$$
MNZ037-044-045-052-053-010100-
   East Central Minnesota

CITY           SKY/WX    TMP DP  RH WIND       PRES   REMARKS
PRINCETON      MOCLDY    55  45  67 E9        29.89F
MORA           MOCLDY    54  43  66 E5        29.92F
CAMBRIDGE      MOCLDY    55  43  62 SE5       29.89S
RUSH CITY      MOCLDY    53  45  73 CALM      29.91F
MOOSE LAKE     MOCLDY    46  43  87 E8        29.92F
HINCKLEY       FAIR      54  45  71 E8        29.91F
CLOQUET        CLOUDY    46  43  87 E12G18    29.95F
MCGREGOR       MOCLDY    48  43  81 E8G16     29.90F
$$
MNZ071>073-080-081-089-090-097-098-010100-
   Southwest Minnesota

CITY           SKY/WX    TMP DP  RH WIND       PRES   REMARKS
MONTEVIDEO     CLOUDY    59  52  77 S14       29.76S
GRANITE FALLS  CLOUDY    63  54  74 SE14G21   29.78S
CANBY          CLOUDY    63  57  82 SE21      29.70F
MARSHALL       CLOUDY    61  54  77 SE16      29.73F
REDWOOD FALLS  LGT RAIN  60  54  80 SE13G23   29.78R
OLIVIA         CLOUDY    59  52  77 SE12G18   29.81R
PIPESTONE      MOCLDY    63  57  82 S15G22    29.74S
WINDOM         CLOUDY    61  55  82 SE14      29.80S
WORTHINGTON    CLOUDY    61  57  88 SE13      29.80S
JACKSON        CLOUDY    61  55  82 SE14      29.83R
TRACY          CLOUDY    61  57  88 S10G17    29.76F
SLAYTON        CLOUDY    60  58  95 SE12      29.78F
$$
MNZ065>067-074>077-082>085-091>093-010100-
   South Central Minnesota

CITY           SKY/WX    TMP DP  RH WIND       PRES   REMARKS
MANKATO        CLOUDY    61  48  63 SE9       29.89S
NEW ULM        CLOUDY    59  55  88 SE13      29.83F
ST JAMES       LGT RAIN  61  55  82 E18G28    29.81F
FAIRMONT       CLOUDY    59  54  82 SE17G23   29.83F
GLENCOE        MOCLDY    59  47  63 E13       29.86F
FARIBAULT      PTCLDY    57  46  67 E6        29.91S
OWATONNA       PTCLDY    57  46  67 E9        29.90S
WASECA         CLOUDY    59  46  63 SE5       29.92R
ALBERT LEA     MOCLDY    61  50  67 SE10G16   29.90R
$$
MNZ078>079-086>088-094>096-010100-
   Southeast Minnesota

CITY           SKY/WX    TMP DP  RH WIND       PRES   REMARKS
ROCHESTER      PTCLDY    52  46  80 SE10      29.94S
6HR MIN TEMP:  52; 6HR MAX TEMP:  57;

RED WING       MOCLDY    54  43  66 SE15G21   29.93S
STANTON        PTCLDY    55  45  70 E6        29.91R
DODGE CENTER   PTCLDY    55  46  71 E9        29.92S
WINONA         MOCLDY    52  45  76 SE9       29.97S
AUSTIN         PTCLDY    55  46  71 SE8       29.91S
PRESTON        PTCLDY    53  46  77 SE6       29.95S
$$
ABBREVIATIONS USED IN REMARKS
   TC - TEMPERATURES IN CELSIUS
  WCI - WIND CHILL INDEX
   HX - HEAT INDEX
  VSB - VISIBILITY
$$


USA.gov is the U.S. government's official web portal to all federal, state and local government web resources and services.